Weather History for Greenville Downtown, SC

Change the Weather History Date:

Friday, December 7, 2012

  Actual Average Record
Temperature  
Mean Temperature 52 °F -  
Max Temperature 59 °F 53 °F 72 °F (2001)
Min Temperature 46 °F 37 °F 19 °F (2010)
Degree Days  
Heating Degree Days 12    
Growing Degree Days 2 (Base 50)    
Moisture  
Dew Point 41 °F    
Average Humidity 67    
Maximum Humidity 83    
Minimum Humidity 59    
Precipitation  
Precipitation 0.00 in - - ()
Sea Level Pressure  
Sea Level Pressure 30.09 in    
Wind  
Wind Speed 5 mph (NE)    
Max Wind Speed 8 mph    
Max Gust Speed -    
Visibility 10 miles    
Events      
Averages and records for this station are not official NWS values.
T = Trace of Precipitation, MM = Missing Value Source: NWS Daily Summary

Daily Weather History Graph

Daily Weather History Graph

Search for Another Location

Airport:

Trip Planner

Search our weather history database for the weather conditions in past years. The results will help you decide how hot, cold, wet, or windy it might be!

Date:

Astronomy

Dec. 07, 2012 Rise Set
Actual Time 7:24 AM EST 5:18 PM EST
Civil Twilight 6:56 AM EST 5:45 PM EST
Nautical Twilight 6:24 AM EST 6:17 PM EST
Astronomical Twilight 5:54 AM EST 6:48 PM EST
Moon 12:55 AM EST (12/7) 1:02 PM EST (12/7)
Length of Visible Light 10h 49m
Length of Day
9h 53m
Last Quarter, 39% of the Moon is Illuminated
Dec 7
Last Quarter
Dec 13
New
Dec 20
First Quarter
Dec 28
Full
Jan 4
Last Quarter

Hourly Weather History & Observations

Time (EST) Temp. Dew Point Humidity Pressure Visibility Wind Dir Wind Speed Gust Speed Precip Events Conditions
12:53 AM 48.9 °F 35.1 °F 59% 30.19 in 10.0 mi NNE 8.1 mph - N/A   Overcast
1:53 AM 48.9 °F 35.1 °F 59% 30.18 in 10.0 mi NE 6.9 mph - N/A   Overcast
2:53 AM 48.9 °F 35.1 °F 59% 30.17 in 10.0 mi NE 4.6 mph - N/A   Overcast
3:53 AM 46.9 °F 37.9 °F 71% 30.16 in 10.0 mi ENE 8.1 mph - 0.00 in   Overcast
4:53 AM 48.0 °F 36.0 °F 63% 30.14 in 10.0 mi NE 6.9 mph - N/A   Overcast
5:53 AM 48.0 °F 36.0 °F 63% 30.14 in 10.0 mi NE 5.8 mph - N/A   Overcast
6:53 AM 48.0 °F 36.0 °F 63% 30.15 in 10.0 mi NNE 6.9 mph - 0.00 in   Overcast
7:53 AM 48.9 °F 36.0 °F 61% 30.16 in 10.0 mi NNE 6.9 mph - N/A   Overcast
8:53 AM 48.9 °F 37.0 °F 64% 30.15 in 10.0 mi ENE 5.8 mph - N/A   Overcast
9:53 AM 50.0 °F 39.9 °F 68% 30.15 in 10.0 mi East 6.9 mph - N/A   Overcast
10:53 AM 52.0 °F 41.0 °F 66% 30.14 in 10.0 mi East 5.8 mph - N/A   Overcast
11:53 AM 53.1 °F 41.0 °F 64% 30.12 in 10.0 mi Variable 3.5 mph - N/A   Overcast
12:53 PM 55.0 °F 42.1 °F 62% 30.08 in 10.0 mi Calm Calm - N/A   Overcast
1:31 PM 55.4 °F 42.8 °F 63% 30.06 in 10.0 mi Calm Calm - N/A   Overcast
2:53 PM 57.9 °F 46.0 °F 65% 30.02 in 10.0 mi Calm Calm - N/A   Overcast
3:26 PM 59.0 °F 46.4 °F 63% 30.02 in 10.0 mi Calm Calm - N/A   Scattered Clouds
3:46 PM 57.2 °F 46.4 °F 67% 30.03 in 10.0 mi Calm Calm - N/A   Mostly Cloudy
3:53 PM 59.0 °F 46.0 °F 62% 30.03 in 10.0 mi Calm Calm - N/A   Mostly Cloudy
4:13 PM 59.0 °F 46.4 °F 63% 30.02 in 10.0 mi Calm Calm - N/A   Scattered Clouds
4:53 PM 57.9 °F 46.0 °F 65% 30.02 in 10.0 mi Calm Calm - N/A   Clear
5:53 PM 55.9 °F 46.0 °F 69% 30.02 in 10.0 mi Calm Calm - N/A   Clear
6:53 PM 54.0 °F 45.0 °F 72% 30.03 in 10.0 mi Calm Calm - N/A   Clear
8:53 PM 50.0 °F 44.1 °F 80% 30.04 in 10.0 mi Calm Calm - N/A   Clear
9:53 PM 48.0 °F 43.0 °F 83% 30.05 in 10.0 mi Calm Calm - N/A   Clear
10:53 PM 48.9 °F 44.1 °F 83% 30.06 in 10.0 mi Calm Calm - N/A   Clear
11:53 PM 48.0 °F 43.0 °F 83% 30.06 in 10.0 mi Calm Calm - N/A   Clear